{"data":{"norad_id":63104,"intl_designator":"2025-039A","name":"STARLINK-11629 [DTC]","alt_names":[],"object_type":"PAYLOAD","status":"ACTIVE","operator":null,"country":"US","launch_date":"2025-02-27","launch_site_code":"AFETR","launch_vehicle":null,"mission":null,"orbit_class":"UNKNOWN","rcs_meters":null,"size_class":null,"mass_kg":null,"dimensions":null,"purposes":["comms"],"wikipedia_slug":null,"has_3d_model":false,"image_url":null,"decayed_at":null,"tle_current":{"epoch":"2026-09-21T01:15:48.655008Z","epoch_age_seconds":114528,"freshness":"FRESH","line1":"1 63104U 25039A   26264.05264647  .00116119  00000+0  89215-3 0  9993","line2":"2 63104  42.9969 139.0233 0000435 170.7568 189.3308 15.70938642 90345","mean_motion":15.70938642,"eccentricity":4.35e-5,"inclination_deg":42.9969,"raan_deg":139.0233,"arg_perigee_deg":170.7568,"mean_anomaly_deg":189.3308,"bstar":0.00089215,"rev_number":9034,"period_min":91.664942315424,"perigee_km":355.92019479324,"apogee_km":356.50608325533,"semimajor_km":6734.3501390243,"source":"CELESTRAK","updated_at":"2026-09-22T09:00:49.762133Z"}}}